Location: Dehesa de la Cepeda
(40.6574°N, 4.3013°W)
Time: 09:23:10
(UTC+00:00)

Cosmos 1356 Rocket - Pass Details

Date: 05 July 2020
Orbit: 542 x 599 km, 81.2° (Epoch: 08 August)

Event Time Altitude Azimuth Distance (km) Brightness Sun altitude
Rises 20:20:25 0° 347° (NNW) 2,841 7.8 -5.4°
Reaches altitude 10° 20:22:39 10° 345° (NNW) 1,929 7.0 -5.8°
Maximum altitude 20:26:53 67° 264° (W) 639 3.9 -6.4°
Drops below altitude 10° 20:31:01 10° 181° (S) 1,884 5.7 -7.0°
Sets 20:33:11 0° 179° (S) 2,768 6.5 -7.4°
